Weather History for St. Croix, VI

Change the Weather History Date:

Thursday, October 31, 2013

  Actual Average Record
Temperature  
Mean Temperature 82 °F 82 °F  
Max Temperature 87 °F 87 °F 92 °F (1980)
Min Temperature 77 °F 76 °F 65 °F (1975)
Degree Days  
Heating Degree Days 0 0  
Month to date heating degree days 0 0  
Since 1 July heating degree days 0 0  
Cooling Degree Days 17 17  
Month to date cooling degree days 583 530  
Year to date cooling degree days 4684 4927  
Growing Degree Days 30 (Base 50)    
Moisture  
Dew Point 73 °F    
Average Humidity 75    
Maximum Humidity 88    
Minimum Humidity 61    
Precipitation  
Precipitation T in 0.20 in 0.99 in (1974)
Month to date precipitation 4.30 5.25  
Year to date precipitation 31.45 30.24  
Sea Level Pressure  
Sea Level Pressure 29.89 in    
Wind  
Wind Speed 8 mph (NE)    
Max Wind Speed 17 mph    
Max Gust Speed 22 mph    
Visibility 9 miles    
Events Rain    
T = Trace of Precipitation, MM = Missing Value Source: NWS Daily Summary

Daily Weather History Graph

Daily Weather History Graph

Search for Another Location

Airport:

Trip Planner

Search our weather history database for the weather conditions in past years. The results will help you decide how hot, cold, wet, or windy it might be!

Date:

Astronomy

Oct. 31, 2013 Rise Set
Actual Time 6:17 AM AST 5:47 PM AST
Civil Twilight 5:55 AM AST 6:09 PM AST
Nautical Twilight 5:29 AM AST 6:35 PM AST
Astronomical Twilight 5:03 AM AST 7:01 PM AST
Moon 3:28 AM AST 3:42 PM AST
Length of Visible Light 12h 14m
Length of Day
11h 29m
Waning Crescent, 10% of the Moon is Illuminated
Oct 31
Waning Crescent
Nov 3
New
Nov 10
First Quarter
Nov 17
Full
Nov 25
Last Quarter

Hourly Weather History & Observations

Time (AST) Temp. Heat Index Dew Point Humidity Pressure Visibility Wind Dir Wind Speed Gust Speed Precip Events Conditions
12:53 AM 77.0 °F - 73.0 °F 88% 29.89 in 10.0 mi North 3.5 mph - N/A   Clear
1:53 AM 79.0 °F - 73.9 °F 84% 29.88 in 10.0 mi NE 5.8 mph - N/A   Partly Cloudy
2:53 AM 80.1 °F 84.2 °F 73.0 °F 79% 29.87 in 10.0 mi NE 6.9 mph - 0.00 in   Scattered Clouds
3:53 AM 80.1 °F 83.2 °F 70.0 °F 71% 29.86 in 10.0 mi NE 8.1 mph - N/A   Clear
4:53 AM 79.0 °F - 71.1 °F 77% 29.86 in 10.0 mi NE 5.8 mph - N/A   Clear
5:53 AM 80.1 °F 84.2 °F 73.0 °F 79% 29.87 in 10.0 mi ENE 5.8 mph - N/A   Clear
6:53 AM 81.0 °F 85.8 °F 73.0 °F 77% 29.90 in 10.0 mi ENE 8.1 mph - N/A   Scattered Clouds
7:53 AM 82.9 °F 88.8 °F 73.0 °F 72% 29.92 in 10.0 mi ENE 9.2 mph - N/A   Scattered Clouds
8:53 AM 84.0 °F 91.2 °F 73.9 °F 72% 29.94 in 10.0 mi ENE 11.5 mph - N/A   Scattered Clouds
9:53 AM 86.0 °F 93.8 °F 73.9 °F 67% 29.95 in 10.0 mi NE 11.5 mph - N/A   Scattered Clouds
10:53 AM 86.0 °F 93.8 °F 73.9 °F 67% 29.94 in 10.0 mi NE 10.4 mph - N/A   Scattered Clouds
11:53 AM 86.0 °F 95.1 °F 75.0 °F 70% 29.91 in 10.0 mi ENE 12.7 mph - N/A   Scattered Clouds
12:53 PM 86.0 °F 93.0 °F 73.0 °F 65% 29.88 in 10.0 mi ENE 12.7 mph - N/A   Partly Cloudy
1:53 PM 86.0 °F 93.0 °F 73.0 °F 65% 29.86 in 10.0 mi ENE 12.7 mph - N/A   Partly Cloudy
2:53 PM 84.9 °F 89.4 °F 70.0 °F 61% 29.84 in 10.0 mi East 11.5 mph - N/A   Scattered Clouds
3:53 PM 84.0 °F 89.6 °F 72.0 °F 67% 29.84 in 10.0 mi East 8.1 mph - N/A   Mostly Cloudy
4:53 PM 82.9 °F 88.0 °F 72.0 °F 69% 29.85 in 10.0 mi ENE 5.8 mph - N/A   Clear
5:53 PM 82.0 °F 86.7 °F 72.0 °F 71% 29.86 in 10.0 mi NE 3.5 mph - N/A   Overcast
6:53 PM 77.0 °F - 71.1 °F 82% 29.86 in 10.0 mi North 4.6 mph - 0.09 in Rain Light Rain
7:53 PM 78.1 °F - 73.9 °F 87% 29.89 in 10.0 mi NNE 4.6 mph - 0.00 in   Partly Cloudy
8:53 PM 78.1 °F - 73.0 °F 84% 29.91 in 10.0 mi ESE 13.8 mph 18.4 mph N/A   Scattered Clouds
9:53 PM 75.9 °F - 72.0 °F 87% 29.92 in 10.0 mi North 3.5 mph - 0.00 in   Partly Cloudy
10:53 PM 77.0 °F - 73.0 °F 88% 29.92 in 10.0 mi North 6.9 mph - N/A   Scattered Clouds
11:01 PM 77.0 °F - 73.4 °F 89% 29.93 in 9.0 mi SSE 5.8 mph - 0.00 in Rain Light Rain
11:12 PM 77.0 °F - 73.4 °F 89% - 1.8 mi East 8.1 mph - 0.18 in Rain Heavy Rain
11:20 PM 75.2 °F - 73.4 °F 94% 29.93 in 2.0 mi East 8.1 mph - 0.27 in Rain Heavy Rain
11:26 PM 75.2 °F - 73.4 °F 94% 29.93 in 3.0 mi ENE 8.1 mph - 0.29 in Rain Heavy Rain